Regional Weather Roundup
Issued by NWS Newport/Morehead, NC

Current Version | Previous Version | Graphics & Text | Print | Product List | Glossary On
Versions: 1 2 3 4 5 6 7 8 9 10 11 12 13 14 15 16 17 18 19 20 21 22 23 24 25 26 27 28 29 30 31 32 33 34 35 36 37 38 39 40 41 42 43 44 45 46 47 48 49 50
000
ASUS42 KMHX 061212
RWRMHX
WEATHER ROUNDUP FOR EASTERN NORTH CAROLINA
NATIONAL WEATHER SERVICE NEWPORT/MOREHEAD CITY NC
800 AM EDT WED MAY 06 2015

NOTE: "FAIR" INDICATES FEW OR NO CLOUDS BELOW 12,000 FEET
WITH NO SIGNIFICANT WEATHER AND/OR OBSTRUCTIONS TO VISIBILITY

NCZ015>017-031-032-045>047-102-103-061300-
NORTH COAST

CITY           SKY/WX    TMP DP  RH WIND       PRES   REMARKS
EDENTON        MOSUNNY   61  59  92 CALM      30.26S
ELIZABETH CITY SUNNY     65  61  87 CALM      30.27R
KITTY HAWK     MOSUNNY   63  62  97 CALM      30.26R
MANTEO         MOSUNNY   63  63  98 CALM      30.27S

$$

NCZ045>047-081-094-103-104-061300-
CENTRAL COAST

CITY           SKY/WX    TMP DP  RH WIND       PRES   REMARKS
FRISCO         PTSUNNY   63  57  81 NE3       30.25S
SWANQUARTER      N/A     63 N/A N/A NE2       30.21S

$$

NCZ095-097-098-100-101-061300-
SOUTHERN COAST

CITY           SKY/WX    TMP DP  RH WIND       PRES   REMARKS
BEAUFORT       PTSUNNY   66  60  81 E5        30.24R
CEDAR ISLAND     N/A     70 N/A N/A NE3       30.30R
JACKSONVILLE   PTSUNNY   61  57  87 CALM      30.24R FOG
PINEY ISLAND   PTSUNNY  N/A N/A N/A NE6       30.24S
WILMINGTON     PTSUNNY   62  59  90 NE5       30.23R


$$

NCZ011>013-027>030-043-044-078>080-089-090>093-098-061300-
COASTAL PLAIN

CITY           SKY/WX    TMP DP  RH WIND       PRES   REMARKS
AHOSKIE        MOSUNNY   56  53  90 CALM      30.27S
CLINTON        PTSUNNY   59  57  93 CALM      30.26R
ELIZABETHTOWN  PTSUNNY   57  56  95 CALM      30.24R
GOLDSBORO      PTSUNNY   58  55  87 CALM      30.23S
GREENVILLE     PTSUNNY   59  55  88 CALM      30.26S
HAVELOCK       PTSUNNY   63  57  81 CALM      30.25R
KENANSVILLE    PTSUNNY   56  55  94 CALM      30.26R
KINSTON        NOT AVBL
NEW BERN       PTSUNNY   61  58  90 CALM      30.26R
RICHLANDS      PTSUNNY   55  52  88 CALM      30.25R
ROCKY MOUNT    MOSUNNY   59  55  87 CALM      30.26R
WASHINGTON     PTSUNNY   58  55  89 CALM      30.26S
WHITEVILLE     PTSUNNY   59  56  89 CALM      30.23R

$$

AMZ130-135-150-152-154-156-158-170-250-252-270-ANZ085-086-088-633-658-670-061300-
MARINE OBSERVATIONS

STATION/POSITION TIME  TEMP    WIND        PRES    WAVE   SWELL
                       AIR SEA DIR/SP/G            HT/PER HT/PER
                 (UTC) (F)     (DEG/KT/KT) (MB)    (FT/S) (FT/S)
CHESAPEAKE LIGHT 1200   62     210/  9/  9 1025.5
64 E VA BEACH    1150   59 57  270/  2/  2 1024.9    2/11   2/11
DUCK             1100   59 51  150/  2/  2 1023.9
2 E DUCK         1111      53                N/A     2/10
OREGON INLET     1100   64 70  120/  2/  2 1024.6
13E OREGON INLT  1200      60                N/A     2/10
HATTERAS CG      1100   66 67   70/  2/  3 1023.8
DIAMOND BUOY     1150   71 75  110/  8/ 10 1024.3    3/ 7   3/ 7
CAPE LOOKOUT     1200   67      40/  8/  9 1023.7
BEAUFORT LAB     1100   63 68   40/  5/  7 1022.8
27 SE WRIGHTSVLE 1100   67 71   90/ 12/ 14   N/A
5 SE WRIGHTSVLE  1108   69 68   80/ 10/ 14 1022.9
225 S CAPE HAT   1150   67 71   90/ 21/ 25 1021.2    7/ 8
41 SE CHARLESTON 1150   73 73   60/ 16/ 19 1020.3    6/ 7   5/ 7

$$



USA.gov is the U.S. government's official web portal to all federal, state and local government web resources and services.